Retour au catalogue

BEIDOU 3M23

ActifNavigationMEO
NORAD 44542·PAYLOAD·🇨🇳 China

Lancé Sep 22, 2019 depuis Xichang Satellite Launch Center

Loading…

Prochains Passages (prochaines 24 heures)

TLE

FraisSource: Space-Track

Époque: Sep 13, 2026, 07:16 UTC

1 44542U 19061A   26256.30302000  .00000007  00000-0  00000-0 0  9992
2 44542  54.3939 179.7577 0009249  12.2289 347.8030  1.86229339 47431

Suivez BEIDOU 3M23 en temps réel avec AllMySat

Download on the App Store